Погода в Хадибо

Йемен     12°39′00″N   54°01′22″E
темп.,
°C
ветер,
м/с
пор.,
м/с
влажн.,
%
обл.,
%
осадки,
мм/ч
давл.,
гПа
погр.,
м
27 ноября, сб
сб2700:00+27св558251 0.2 1013611
03:00+26св4481100 0.3 1013621
06:00+26св447977 0.0 1014689
09:00+26св557796 0.0 1015686
12:00+26св4476100 0.0 1013701
15:00+27св457379 0.0 1012774
18:00+27св56725 0.0 1014755
21:00+27всв56725 0.0 1014812
28 ноября, вс
вс2800:00+26всв567483 0.0 1013753
03:00+26всв5675100 0.0 1012769
06:00+26св667438 0.0 1014938
09:00+26св677312 0.0 10151025
12:00+26св56715 0.0 10131018
15:00+26св56695 0.0 10121009
18:00+26всв676829 0.0 10131010
21:00+26всв786898 0.0 10141148
29 ноября, пн
пн2900:00+26всв7768100 0.0 10131118
03:00+26всв6668100 0.0 10131073
06:00+26св576619 0.0 10151056
09:00+26св686660 0.0 10161087
12:00+26св68679 0.0 10131109
15:00+26св786839 0.0 10121141
18:00+26св796866 0.0 10131335
21:00+26св7968100 0.0 10141130
30 ноября, вт
вт3000:00+26всв6768100 0.0 1013974
03:00+26св5766100 0.0 10131000
06:00+26св676696 0.0 10141087
09:00+26св686799 0.0 10151269
12:00+26ссв676536 0.0 10121331
15:00+26ссв6765100 0.1 10111230
18:00+26ссв666099 0.1 10121387
21:00+26св665646 0.1 10131220
1 декабря, ср
ср100:00+26св555339 0.0 10121178
03:00+26св555299 0.0 10121245
06:00+26св565099 0.0 10141385
09:00+26св66510 0.0 10141593
12:00+26ссв45510 0.0 10121485
15:00+26ссв55530 0.0 10111463
18:00+26св77570 0.0 10121629
21:00+26св67570 0.0 10131525